Regional Weather Roundup
Issued by NWS

Home | Current Version | Previous Version | Graphics & Text | Print | Product List | Glossary Off
Versions: 1 2 3 4 5 6 7 8 9 10 11 12 13 14 15 16 17 18 19 20 21 22 23 24 25 26 27 28 29 30 31 32 33 34 35 36 37 38 39 40 41 42 43 44 45 46 47 48 49 50

000
ASUS43 KDMX 271007
RWRIA

WEATHER ROUNDUP FOR IOWA
NATIONAL WEATHER SERVICE DES MOINES IA
400 AM CST FRI FEB 27 2015

NOTE: "FAIR" INDICATES FEW OR NO CLOUDS BELOW 12,000 FEET WITH NO
SIGNIFICANT WEATHER AND/OR OBSTRUCTIONS TO VISIBILITY.

* - THESE STATIONS ARE NOT NWS STATIONS...THUS NOT UNDER NWS
QUALITY CONTROL.  THEY ALSO DO NOT REPORT WEATHER SUCH
AS PRECIPITATION OR FOG.

IAZ001>003-012>014-020>022-031>034-043>046-271100-
   NORTHWEST IOWA

CITY           SKY/WX    TMP DP  RH WIND       PRES   REMARKS
CARROLL *      PTCLDY    -9 -17  70 W8        30.56R WCI -26
CHEROKEE *     PTCLDY   -18 -24  76 CALM      30.55S
DENISON *      PTCLDY   -17 -24  70 CALM      30.55S
LE MARS *      CLEAR     -8 -11  84 CALM      30.57S
ORANGE CITY *  CLEAR     -8 -11  84 CALM      30.51S
SHELDON *      CLEAR    -13 -18  77 CALM      30.51S
SIOUX CITY     CLEAR     -3  -9  75 CALM      30.59S
SPENCER        CLEAR    -13 -19  75 NW6       30.52S WCI -27
STORM LAKE *   CLEAR    -13 -20  70 W10       30.52S WCI -32
$$

IAZ055>058-069>071-079>083-090>094-271100-
   SOUTHWEST IOWA

CITY           SKY/WX    TMP DP  RH WIND       PRES   REMARKS
ATLANTIC *     CLEAR     -8 -13  77 CALM      30.57S
AUDUBON *      CLEAR    -13 -18  77 CALM      30.55S
CLARINDA *     CLEAR     -4  -8  84 N5        30.62S WCI -15
COUNCIL BLFS * CLEAR     -2  -6  84 NW3       30.56S
CRESTON *      CLEAR     -6 -11  77 W5        30.56R WCI -17
HARLAN  *      CLEAR     -9 -13  84 CALM      30.61R
LAMONI         CLEAR     -5  -9  83 W5        30.56S WCI -16
RED OAK *      CLEAR     -6  -9  84 S3        30.60S
SHENANDOAH *   CLEAR     -4  -8  84 CALM      30.62R
$$

IAZ047>049-059>061-072>074-084-271100-
   CENTRAL IOWA

CITY           SKY/WX    TMP DP  RH WIND       PRES   REMARKS
AMES           CLEAR    -12 -17  78 W6        30.56S WCI -26
ANKENY *       CLEAR     -8 -15  71 W3        30.59R
CHARITON *     CLEAR     -6 -13  71 NW7       30.56S WCI -20
DES MOINES     CLEAR     -5 -11  75 NW3       30.58R
GRINNELL*      CLEAR    -13 -17  84 W7        30.54S WCI -29
KNOXVILLE *    CLEAR     -8 -15  71 W7        30.56S WCI -22
MARSHALLTOWN   PTCLDY   -17 -20  86 W6        30.54R WCI -32
PELLA *        CLEAR     -8  -9  92 W7        30.58S WCI -22
PERRY *          N/A    -11 -15  84 W8        30.57R WCI -28
$$

IAZ004>006-015-016-023>025-035-036-271100-
   NORTH CENTRAL IOWA

CITY           SKY/WX    TMP DP  RH WIND       PRES   REMARKS
ALGONA *       CLEAR     -9 -15  77 NW9       30.52S WCI -27
CLARION *      CLEAR    -20 -27  69 CALM      30.53S
ESTHERVILLE    CLEAR    -14 -19  79 W8        30.50F WCI -31
FORT DODGE *   CLEAR     -9 -17  70 CALM      30.54F
MASON CITY     MOCLDY   -15 -19  82 W9        30.52R WCI -34
FOREST CITY *  CLEAR    -15 -22  70 CALM      30.50S
IOWA FALLS *     N/A    -18 -24  76 NW7       30.53S WCI -35
$$

IAZ007>011-017>019-026>030-037>042-050>054-066-271100-
   NORTHEAST IOWA

CITY           SKY/WX    TMP DP  RH WIND       PRES   REMARKS
CEDAR RAPIDS   PTCLDY   -16 -19  87 NW8       30.52F WCI -34
CHARLES CITY * CLEAR    -15 -22  70 W7        30.51S WCI -31
CLINTON *      CLEAR    -17 -24  70 W7        30.54R WCI -33
DECORAH *      CLEAR     -9 -17  70 CALM      30.48S
DUBUQUE        CLEAR    -17 -20  86 CALM      30.48S
MONTICELLO *   CLEAR    -17 -24  70 CALM      30.53S
OELWEIN *      CLEAR    -17 -24  70 W5        30.52R WCI -29
WATERLOO       MOCLDY   -17 -20  86 NW5       30.54S WCI -30
$$

IAZ064-065-067-068-078-271100-
   EAST CENTRAL IOWA

CITY           SKY/WX    TMP DP  RH WIND       PRES   REMARKS
DAVENPORT      CLEAR    -16 -21  78 W8        30.54R WCI -34
IOWA CITY      CLEAR     -8 -12  83 CALM      30.58R
MT. PLEASANT * CLEAR     -8 -13  77 NW7       30.56S WCI -22
MUSCATINE *    CLEAR     -6 -13  71 W6        30.59R WCI -18
QUAD CITIES    PTCLDY   -10 -15  78 W7        30.55R WCI -25
$$

IAZ062-063-075>077-085>089-095>099-271100-
   SOUTHEAST IOWA

CITY           SKY/WX    TMP DP  RH WIND       PRES   REMARKS
BURLINGTON     CLEAR     -8 -12  83 CALM      30.56R
FAIRFIELD *    CLEAR     -9 -17  70 W7        30.57R WCI -24
FORT MADISON * CLEAR     -8 -11  84 NW8       30.56S WCI -23
KEOKUK *       CLEAR     -8  -9  92 W6        30.57S WCI -21
OSKALOOSA *      N/A     -9 -15  77 NW8       30.57S WCI -26
CENTERVILLE *  CLEAR     -4  -9  77 W6        30.57S WCI -16
OTTUMWA        CLEAR     -7 -12  79 W7        30.56F WCI -21
WASHINGTON *   CLEAR    -11 -15  84 NW8       30.56S WCI -28
$$

ABBREVIATIONS USED IN REMARKS
   TC - TEMPERATURES IN CELSIUS
  WCI - WIND CHILL INDEX
   HX - HEAT INDEX
  VSB - VISIBILITY
$$



USA.gov is the U.S. government's official web portal to all federal, state and local government web resources and services.